{"data":{"norad_id":56555,"intl_designator":"2023-065BE","name":"STARLINK-6252","alt_names":[],"object_type":"PAYLOAD","status":"ACTIVE","operator":null,"country":"US","launch_date":"2023-05-14","launch_site_code":"AFETR","launch_vehicle":null,"mission":null,"orbit_class":"UNKNOWN","rcs_meters":null,"size_class":null,"mass_kg":null,"dimensions":null,"purposes":["comms"],"wikipedia_slug":null,"has_3d_model":false,"image_url":null,"decayed_at":null,"tle_current":{"epoch":"2026-09-20T12:38:44.266272Z","epoch_age_seconds":112610,"freshness":"FRESH","line1":"1 56555U 23065BE  26263.52690123 -.00000177  00000+0  30812-5 0  9993","line2":"2 56555  43.0001 202.9307 0000635 234.9581 125.1211 15.27576079186271","mean_motion":15.27576079,"eccentricity":6.35e-5,"inclination_deg":43.0001,"raan_deg":202.9307,"arg_perigee_deg":234.9581,"mean_anomaly_deg":125.1211,"bstar":3.0812e-6,"rev_number":18627,"period_min":94.266990678636,"perigee_km":482.62515088669,"apogee_km":483.49652301199,"semimajor_km":6861.1978369493,"source":"CELESTRAK","updated_at":"2026-09-21T09:00:33.479807Z"}}}